星链-31923 (STARLINK-31923)

导读

STARLINK-31923是美国SpaceX星链互联网卫星星座的一员,于2024年8月20日发射入轨,旨在为全球提供高速低延迟宽带互联网服务。星链星座通过大规模近地轨道卫星组网,重点覆盖偏远地区等地面网络难以触及的区域,该卫星加入后进一步扩充了星座规模,提升服务覆盖能力与稳定性。

Basic Information
目录编号:
60600
目录名称:
STARLINK-31923
国际标识:
2024-150T
轨道中心:
EARTH
卫星名称:
星链-31923 (STARLINK-31923)
卫星全名:
星链-31923 (STARLINK-31923)
卫星状态:
在轨 (已飞行667 天)
发射日期:
2024-08-20 UTC
国别 :
美国 (US)
星等 :
--
Orbit Information
数据来源 国际轨道数据 AOE轨道数据
星历时间 2026-06-17T18:54:28+0800
16小时前
查看轨道信息
2026-06-16T14:00:00+0800
1天前
查看轨道信息
半长轴 6853.448km 6853.373km
偏心率 0.000112 0.0001138
轨道倾角 53.160° 53.157°
近地点辐角 75.434° 86.112°
升交点赤经 203.782° 209.376°
平近点角 284.679° 115.256°
近地点 474.543km 474.456km
远地点 476.079km 476.016km
周期 94.107分钟 94.106分钟
每日圈数 15.301681 15.301931
Detailed Information
卫星平台:
Starlink v2.0 mini
运营商:
太空探索技术公司
运营商所在国:
美国
制造商(研发单位):
太空探索技术公司
制造商所在国:
美国
使用方式:
暂无
Satellite Introduction
星链(Starlink)计划是由太空探索技术公司(SpaceX)提出的一个巨型低轨卫星互联网星座项目,计划在2019年至2024年间在太空搭建由约1.2万颗卫星组成的“星链”网络,其中1584颗将部署在地球上空550千米处的近地轨道,并从2020年开始工作。该卫星仍在工作。
2D Orbit Map
3D Orbit Map
Orbit Altitude Analysis Chart
Orbit Inclination Analysis Chart
Orbit Comprehensive Analysis Chart
View Comprehensive Chart